Content
SEND FEEDBACK

Daily
Averages
Monthly
Summary
Thailand

CHON BURI, THAILAND


Home > Asia > Thailand
Elevation: 7 feet     Latitude: 13 22N     Longitude: 100 59E

WEATHER
 
SELECT A DAY
Number of Records: 145,493;   Date Range: 6/20/04 - 7/26/14
 
SHARE

PRINT THIS DATA

[ ← Previous Day ]
WEATHER ALMANAC - JANUARY 23, 2013
[ Next Day → ]
[ °C ]   °F
Weather ElementAverageHighLow
Temperature83.3 °F93.2 °F (2:00 pm)77 °F (3:30 am)
Dewpoint72.1 °F77 °F (1:00 pm)64.4 °F (2:30 pm)
Humidity69.7 %89 % (5:30 am)38 % (2:30 pm)
Barometer29.90 in29.98 in (9:00 am)29.83 in (3:00 pm)
Wind Speed5.1 mph9.2 mph (11:30 pm)
Wind Gust17.3 mph (1:00 am)
Weather ElementAverage
Visibility3.4 mi
Wind DirectionSSE (164.1 °)

Weather ElementTotal
Precipitation---
Cooling Degree Days20.1 (Base 65)
Growing Degree Days35.1 (Base 50)
Averaged from 51 records on January 23, 2013
WEATHER CONDITIONS BREAKOUT
WIND DIRECTION BREAKOUT
WEATHER BY HOUR - JANUARY 23, 2013
[ °C ]   °F
Local TimeTemperatureDewpointHumidityBarometerVisibilityWind DirectionWind SpeedGust SpeedPrecipitationEventsConditions
12:30 AM78.8 °F71.6 °F78 %29.92 in2.5 miSSW (210°)3.5 mphMist
1:00 AM80.0 °F73.0 °F73 %29.92 in4.0 miESE (120°)2.3 mphMist
1:00 AM78.8 °F71.6 °F78 %29.92 in2.5 miSSW (210°)5.8 mph17.3 mphMist
1:30 AM78.8 °F71.6 °F78 %29.92 in2.5 miWSW (240°)3.5 mphMist
2:00 AM78.8 °F71.6 °F78 %29.92 in2.5 miSSW (200°)4.6 mphMist
2:30 AM78.8 °F71.6 °F78 %29.89 in2.5 miSSW (210°)3.5 mphMist
3:00 AM78.8 °F73.4 °F83 %29.89 inSSW (210°)3.5 mphMist
3:30 AM77.0 °F71.6 °F83 %29.89 in3.1 miSouth (190°)4.6 mphMist
4:00 AM77.0 °F71.6 °F83 %29.86 in3.1 miSSE (150°)2.3 mphMist
4:30 AM78.8 °F73.4 °F83 %29.86 in3.1 miSouth (180°)3.5 mphMist
5:00 AM77.0 °F71.6 °F83 %29.89 in3.1 miVariable1.2 mphMist
5:30 AM77.0 °F73.4 °F89 %29.89 in1.9 miSSW (200°)2.3 mphMist
6:00 AM77.0 °F73.4 °F89 %29.89 in1.9 miSSE (160°)2.3 mphMist
6:30 AM77.0 °F71.6 °F83 %29.89 in1.2 miNE (40°)3.5 mphMist
7:00 AM77.0 °F73.0 °F83 %29.88 in4.0 miCalmMist
7:00 AM77.0 °F71.6 °F83 %29.92 in0.9 miNNE (30°)6.9 mphMostly Cloudy
7:30 AM77.0 °F71.6 °F83 %29.92 in0.8 miNNE (20°)6.9 mphMostly Cloudy
8:00 AM77.0 °F71.6 °F83 %29.95 in0.9 miNE (40°)4.6 mphMist
8:30 AM78.8 °F71.6 °F78 %29.95 in0.9 miENE (70°)5.8 mphMist
9:00 AM78.8 °F71.6 °F78 %29.98 in1.2 miEast (90°)5.8 mphMostly Cloudy
9:30 AM80.6 °F71.6 °F74 %29.98 in1.9 miEast (90°)6.9 mphMostly Cloudy
10:00 AM82.4 °F71.6 °F70 %29.98 in1.9 miENE (70°)5.8 mphMostly Cloudy
10:30 AM84.2 °F73.4 °F70 %29.98 in2.5 miENE (60°)4.6 mphMostly Cloudy
11:00 AM86.0 °F71.6 °F62 %29.95 in3.1 miSouth (170°)3.5 mphMostly Cloudy
11:30 AM87.8 °F71.6 °F58 %29.95 in3.1 miWSW (250°)4.6 mphHaze
12:00 PM89.6 °F71.6 °F55 %29.92 in3.1 miSouth (180°)5.8 mphHaze
12:30 PM89.6 °F71.6 °F55 %29.92 in3.7 miEast (80°)4.6 mphMostly Cloudy
1:00 PM89.0 °F77.0 °F61 %29.89 in5.0 miWNW (300°)3.5 mphMist
1:00 PM91.4 °F71.6 °F52 %29.89 in3.7 miESE (120°)5.8 mphMostly Cloudy
1:30 PM91.4 °F69.8 °F49 %29.89 in4.3 miESE (110°)6.9 mphMostly Cloudy
2:00 PM93.2 °F68.0 °F44 %29.86 in5.0 miEast (100°)8.1 mphMostly Cloudy
2:30 PM93.2 °F64.4 °F38 %29.86 in5.0 miESE (120°)8.1 mphMostly Cloudy
3:00 PM91.4 °F64.4 °F41 %29.83 in5.0 miEast (90°)5.8 mphMostly Cloudy
3:30 PM91.4 °F71.6 °F52 %29.83 in5.0 miSSW (210°)5.8 mphMostly Cloudy
4:00 PM91.4 °F73.4 °F55 %29.83 in5.0 miSW (220°)8.1 mphMostly Cloudy
4:30 PM91.4 °F73.4 °F55 %29.83 in5.0 miSW (220°)6.9 mphMostly Cloudy
5:00 PM89.6 °F71.6 °F55 %29.83 in5.0 miWSW (240°)4.6 mphMostly Cloudy
5:30 PM87.8 °F73.4 °F62 %29.83 in5.0 miSW (220°)6.9 mphMostly Cloudy
6:00 PM86.0 °F71.6 °F62 %29.86 in5.0 miWSW (240°)4.6 mphMostly Cloudy
6:30 PM87.8 °F71.6 °F58 %29.86 in5.0 miWSW (250°)4.6 mphMostly Cloudy
7:00 PM84.0 °F77.0 °F74 %29.86 in5.0 miCalmMist
7:00 PM86.0 °F71.6 °F62 %29.86 in4.3 miWSW (240°)4.6 mphMostly Cloudy
7:30 PM86.0 °F71.6 °F62 %29.86 in4.3 miSSW (210°)3.5 mphMostly Cloudy
8:00 PM86.0 °F71.6 °F62 %29.89 in4.3 miWSW (250°)3.5 mphMostly Cloudy
8:30 PM82.4 °F71.6 °F70 %29.89 in4.3 miSouth (190°)8.1 mph
9:00 PM80.6 °F73.4 °F79 %29.89 in3.7 miSouth (190°)6.9 mph
9:30 PM80.6 °F73.4 °F79 %29.89 in3.7 miSSW (200°)5.8 mph
10:00 PM82.4 °F73.4 °F74 %29.92 in3.7 miSSW (210°)8.1 mph
10:30 PM82.4 °F75.2 °F79 %29.92 in3.7 miSSW (210°)8.1 mph
11:00 PM82.4 °F75.2 °F79 %29.92 in3.7 miSSW (210°)8.1 mph
11:30 PM82.4 °F75.2 °F79 %29.92 in3.7 miSW (220°)9.2 mph
Hourly data recorded from VTBS, located miles away from Chon Buri, Thailand







STORIES FROM OUR PARTNERS